Hourly Data Report for October 17, 2015

All times are specified in Local Standard Time (LST). Add 1 hour to adjust for Daylight Saving Time where and when it is observed.

KUGLUKTUK A
NUNAVUT

67°49'00.000" N
115°08'38.000" W
22.60 m
2300903
71938
YCO

Download Data

Hourly Data (October 2015)
Hourly Data Report for October 17, 2015
Temp Definition
°C
Dew Point Temp Definition
°C
Rel Hum Definition
%
Wind Dir Definition
10's deg

Wind Spd Definition
km/h
Visibility Definition
km
Stn Press Definition
kPa
Hmdx Definition


Wind Chill Definition


Weather Definition


TIME
00:00 Legend Double Dagger -9.4 -10.9 89 19 16 24.1 101.90   -16 LegendNANA
01:00 Legend Double Dagger -10.7 -12.2 89 20 16 24.1 101.85   -18 LegendNANA
02:00 Legend Double Dagger -10.6 -12.2 88 18 10 24.1 101.80   -16 Mainly Clear
03:00 Legend Double Dagger -10.1 -12.0 86 17 9 24.1 101.75   -15 LegendNANA
04:00 Legend Double Dagger -9.0 -11.4 83 16 9 24.1 101.71   -14 LegendNANA
05:00 Legend Double Dagger -10.3 -12.8 82 12 11 24.1 101.66   -16 Mainly Clear
06:00 Legend Double Dagger -10.7 -13.1 83 11 14 24.1 101.55   -17 LegendNANA
07:00 Legend Double Dagger -11.1 -13.2 85 11 13 24.1 101.47   -18 LegendNANA
08:00 Legend Double Dagger -10.8 -12.7 86 12 12 24.1 101.39   -17 Mostly Cloudy
09:00 Legend Double Dagger -10.1 -12.5 83 11 12 24.1 101.32   -16 LegendNANA
10:00 Legend Double Dagger -7.8 -9.8 86 10 12 24.1 101.25   -13 LegendNANA
11:00 Legend Double Dagger -5.9 -8.2 84 9 19 24.1 101.17   -13 Cloudy
12:00 Legend Double Dagger -4.5 -7.3 81 9 28 24.1 101.09   -12 LegendNANA
13:00 Legend Double Dagger -4.4 -7.4 80 9 31 24.1 100.97   -12 LegendNANA
14:00 Legend Double Dagger -4.3 -7.4 79 9 31 24.1 100.89   -12 Cloudy
15:00 Legend Double Dagger -4.7 -6.9 85 8 35 19.3 100.79   -13 Snow Grains
16:00 Legend Double Dagger -4.5 -6.0 89 8 34 19.3 100.74   -13 Snow Grains
17:00 Legend Double Dagger -4.4 -5.7 91 7 35 19.3 100.68   -13 Snow Grains,Blowing Snow
18:00 Legend Double Dagger -4.1 -5.2 92 8 36 8.1 100.62   -12 Snow Pellets,Blowing Snow
19:00 Legend Double Dagger -3.9 -5.2 91 8 38 8.1 100.55   -12 Snow Pellets,Blowing Snow
20:00 Legend Double Dagger -3.9 -4.9 93 8 33 8.1 100.50   -12 Snow Pellets,Blowing Snow
21:00 Legend Double Dagger -4.0 -5.6 89 7 38 8.1 100.48   -13 Snow Pellets,Blowing Snow
22:00 Legend Double Dagger -4.1 -6.1 86 7 39 8.1 100.48   -13 Snow Pellets,Blowing Snow
23:00 Legend Double Dagger -4.2 -6.7 83 8 40 9.7 100.49   -13 Snow Pellets,Hail,Blowing Snow

Notes on Data Quality.

Legend

  • E = Estimated
  • M = Missing
  • NA = Not Available
  • ‡ = Partner data that is not subject to review by the National Climate Archives
Date modified: